Time,TemperatureF,DewpointF,PressureIn,WindDirection,WindDirectionDegrees,WindSpeedMPH,WindSpeedGustMPH,Humidity,HourlyPrecipIn,Conditions,Clouds,dailyrainin,SoftwareType,DateUTC
2013-01-24 00:05:00,7.4,-7.0,30.06,WNW,287,5.0,-999.0,52,-99.99,,,0.00,weatherlink.com 1.10,2013-01-24 05:05:00,
2013-01-24 00:20:00,7.3,-7.0,30.06,WNW,292,3.0,-999.0,52,-99.99,,,0.00,weatherlink.com 1.10,2013-01-24 05:20:00,
2013-01-24 00:35:00,7.1,-7.0,30.06,NW,323,6.0,-999.0,53,-99.99,,,0.00,weatherlink.com 1.10,2013-01-24 05:35:00,
2013-01-24 00:50:00,6.8,-7.0,30.05,NW,304,0.0,-999.0,53,-99.99,,,0.00,weatherlink.com 1.10,2013-01-24 05:50:00,
2013-01-24 01:05:00,6.7,-7.0,30.06,NW,315,5.0,-999.0,53,-99.99,,,0.00,weatherlink.com 1.10,2013-01-24 06:05:00,
2013-01-24 01:20:00,6.6,-7.0,30.06,WNW,303,3.0,-999.0,53,-99.99,,,0.00,weatherlink.com 1.10,2013-01-24 06:20:00,
2013-01-24 01:36:00,6.5,-7.0,30.06,NW,308,1.0,-999.0,54,-99.99,,,0.00,weatherlink.com 1.10,2013-01-24 06:36:00,
2013-01-24 01:51:00,6.4,-7.0,30.07,NNW,336,4.0,-999.0,54,-99.99,,,0.00,weatherlink.com 1.10,2013-01-24 06:51:00,
2013-01-24 02:05:00,6.2,-7.0,30.07,West,270,0.0,-999.0,54,-99.99,,,0.00,weatherlink.com 1.10,2013-01-24 07:05:00,
2013-01-24 02:21:00,6.1,-7.0,30.07,NW,326,4.0,-999.0,54,-99.99,,,0.00,weatherlink.com 1.10,2013-01-24 07:21:00,
2013-01-24 02:35:00,5.9,-7.0,30.07,NW,306,1.0,-999.0,55,-99.99,,,0.00,weatherlink.com 1.10,2013-01-24 07:35:00,
2013-01-24 02:50:00,5.6,-7.0,30.06,NW,313,5.0,-999.0,55,-99.99,,,0.00,weatherlink.com 1.10,2013-01-24 07:50:00,
2013-01-24 03:05:00,5.4,-8.0,30.05,NNW,345,0.0,-999.0,55,-99.99,,,0.00,weatherlink.com 1.10,2013-01-24 08:05:00,
2013-01-24 03:20:00,5.2,-8.0,30.05,WNW,300,3.0,-999.0,54,-99.99,,,0.00,weatherlink.com 1.10,2013-01-24 08:20:00,
2013-01-24 03:35:00,5.1,-8.0,30.05,NW,325,3.0,-999.0,54,-99.99,,,0.00,weatherlink.com 1.10,2013-01-24 08:35:00,
2013-01-24 03:51:00,4.9,-9.0,30.05,WNW,298,1.0,-999.0,54,-99.99,,,0.00,weatherlink.com 1.10,2013-01-24 08:51:00,
2013-01-24 04:05:00,4.8,-9.0,30.05,NW,317,2.0,-999.0,53,-99.99,,,0.00,weatherlink.com 1.10,2013-01-24 09:05:00,
2013-01-24 04:20:00,4.7,-9.0,30.04,WNW,303,4.0,-999.0,53,-99.99,,,0.00,weatherlink.com 1.10,2013-01-24 09:20:00,
2013-01-24 04:36:00,4.6,-10.0,30.04,NW,326,4.0,-999.0,51,-99.99,,,0.00,weatherlink.com 1.10,2013-01-24 09:36:00,
2013-01-24 04:50:00,4.4,-10.0,30.04,NNW,347,0.0,-999.0,52,-99.99,,,0.00,weatherlink.com 1.10,2013-01-24 09:50:00,
2013-01-24 05:06:00,4.3,-11.0,30.04,North,350,5.0,-999.0,50,-99.99,,,0.00,weatherlink.com 1.10,2013-01-24 10:06:00,
2013-01-24 05:20:00,4.1,-10.0,30.05,NNW,339,0.0,-999.0,51,-99.99,,,0.00,weatherlink.com 1.10,2013-01-24 10:20:00,
2013-01-24 05:35:00,4.0,-11.0,30.05,NW,319,4.0,-999.0,51,-99.99,,,0.00,weatherlink.com 1.10,2013-01-24 10:35:00,
2013-01-24 05:50:00,3.8,-11.0,30.05,NNW,344,6.0,-999.0,51,-99.99,,,0.00,weatherlink.com 1.10,2013-01-24 10:50:00,
2013-01-24 06:05:00,3.8,-11.0,30.05,NW,313,6.0,-999.0,51,-99.99,,,0.00,weatherlink.com 1.10,2013-01-24 11:05:00,
2013-01-24 06:21:00,3.8,-11.0,30.06,NW,323,2.0,-999.0,51,-99.99,,,0.00,weatherlink.com 1.10,2013-01-24 11:21:00,
2013-01-24 06:35:00,3.7,-10.0,30.06,NNW,337,1.0,-999.0,52,-99.99,,,0.00,weatherlink.com 1.10,2013-01-24 11:35:00,
2013-01-24 06:51:00,3.6,-11.0,30.06,WNW,294,0.0,-999.0,52,-99.99,,,0.00,weatherlink.com 1.10,2013-01-24 11:51:00,
2013-01-24 07:05:00,3.6,-10.0,30.06,North,350,6.0,-999.0,53,-99.99,,,0.00,weatherlink.com 1.10,2013-01-24 12:05:00,
2013-01-24 07:20:00,3.6,-10.0,30.07,NNW,333,3.0,-999.0,54,-99.99,,,0.00,weatherlink.com 1.10,2013-01-24 12:20:00,
2013-01-24 07:35:00,3.8,-10.0,30.06,NNW,331,5.0,-999.0,54,-99.99,,,0.00,weatherlink.com 1.10,2013-01-24 12:35:00,
2013-01-24 07:50:00,4.0,-9.0,30.07,West,270,1.0,-999.0,54,-99.99,,,0.00,weatherlink.com 1.10,2013-01-24 12:50:00,
2013-01-24 08:06:00,4.1,-9.0,30.07,NNW,337,3.0,-999.0,54,-99.99,,,0.00,weatherlink.com 1.10,2013-01-24 13:06:00,
2013-01-24 08:20:00,4.6,-10.0,30.07,NW,305,2.0,-999.0,51,-99.99,,,0.00,weatherlink.com 1.10,2013-01-24 13:20:00,
2013-01-24 08:35:00,5.0,-10.0,30.07,NNW,332,4.0,-999.0,49,-99.99,,,0.00,weatherlink.com 1.10,2013-01-24 13:35:00,
2013-01-24 08:50:00,5.5,-10.0,30.07,NW,323,7.0,-999.0,48,-99.99,,,0.00,weatherlink.com 1.10,2013-01-24 13:50:00,
2013-01-24 09:05:00,6.5,-11.0,30.07,West,275,3.0,-999.0,45,-99.99,,,0.00,weatherlink.com 1.10,2013-01-24 14:05:00,
2013-01-24 09:20:00,7.4,-11.0,30.07,WNW,302,10.0,-999.0,43,-99.99,,,0.00,weatherlink.com 1.10,2013-01-24 14:20:00,
2013-01-24 09:35:00,7.8,-11.0,30.06,North,355,8.0,-999.0,42,-99.99,,,0.00,weatherlink.com 1.10,2013-01-24 14:35:00,
2013-01-24 09:50:00,8.4,-10.0,30.06,NW,321,8.0,-999.0,43,-99.99,,,0.00,weatherlink.com 1.10,2013-01-24 14:50:00,
2013-01-24 10:05:00,9.0,-10.0,30.06,NNW,340,1.0,-999.0,42,-99.99,,,0.00,weatherlink.com 1.10,2013-01-24 15:05:00,
2013-01-24 10:20:00,10.0,-9.0,30.06,NW,323,5.0,-999.0,41,-99.99,,,0.00,weatherlink.com 1.10,2013-01-24 15:20:00,
2013-01-24 10:36:00,10.6,-9.0,30.05,North,351,8.0,-999.0,41,-99.99,,,0.00,weatherlink.com 1.10,2013-01-24 15:36:00,
2013-01-24 10:51:00,11.5,-9.0,30.05,WNW,296,10.0,-999.0,40,-99.99,,,0.00,weatherlink.com 1.10,2013-01-24 15:51:00,
2013-01-24 11:06:00,12.2,-8.0,30.05,NNW,341,0.0,-999.0,40,-99.99,,,0.00,weatherlink.com 1.10,2013-01-24 16:06:00,
2013-01-24 11:21:00,13.2,-8.0,30.05,NW,310,14.0,-999.0,39,-99.99,,,0.00,weatherlink.com 1.10,2013-01-24 16:21:00,
2013-01-24 11:36:00,13.8,-8.0,30.04,North,360,0.0,-999.0,38,-99.99,,,0.00,weatherlink.com 1.10,2013-01-24 16:36:00,
2013-01-24 11:50:00,14.8,-8.0,30.03,North,360,5.0,-999.0,36,-99.99,,,0.00,weatherlink.com 1.10,2013-01-24 16:50:00,
2013-01-24 12:05:00,15.6,-7.0,30.03,NNW,340,6.0,-999.0,36,-99.99,,,0.00,weatherlink.com 1.10,2013-01-24 17:05:00,
2013-01-24 12:20:00,16.2,-8.0,30.02,NW,323,15.0,-999.0,34,-99.99,,,0.00,weatherlink.com 1.10,2013-01-24 17:20:00,
2013-01-24 12:35:00,17.4,-7.0,30.02,NW,307,3.0,-999.0,33,-99.99,,,0.00,weatherlink.com 1.10,2013-01-24 17:35:00,
2013-01-24 12:51:00,17.0,-9.0,30.02,NNW,333,14.0,-999.0,31,-99.99,,,0.00,weatherlink.com 1.10,2013-01-24 17:51:00,
2013-01-24 13:05:00,17.4,-9.0,30.01,North,360,7.0,-999.0,31,-99.99,,,0.00,weatherlink.com 1.10,2013-01-24 18:05:00,
2013-01-24 13:20:00,17.7,-8.0,30.01,North,355,10.0,-999.0,32,-99.99,,,0.00,weatherlink.com 1.10,2013-01-24 18:20:00,
2013-01-24 13:36:00,18.1,-8.0,30.00,NNW,348,9.0,-999.0,31,-99.99,,,0.00,weatherlink.com 1.10,2013-01-24 18:36:00,
2013-01-24 13:50:00,18.1,-9.0,30.00,NNW,334,3.0,-999.0,29,-99.99,,,0.00,weatherlink.com 1.10,2013-01-24 18:50:00,
2013-01-24 14:05:00,18.2,-9.0,30.00,NNW,337,9.0,-999.0,30,-99.99,,,0.00,weatherlink.com 1.10,2013-01-24 19:05:00,
2013-01-24 14:21:00,18.9,-7.0,30.00,NNW,335,10.0,-999.0,31,-99.99,,,0.00,weatherlink.com 1.10,2013-01-24 19:21:00,
2013-01-24 14:35:00,19.4,-8.0,30.00,NW,313,6.0,-999.0,29,-99.99,,,0.00,weatherlink.com 1.10,2013-01-24 19:35:00,
2013-01-24 14:54:00,20.0,-8.0,30.00,NNW,336,8.0,-999.0,29,-99.99,,,0.00,weatherlink.com 1.10,2013-01-24 19:54:00,
2013-01-24 15:05:00,20.1,-9.0,30.00,NW,320,2.0,-999.0,27,-99.99,,,0.00,weatherlink.com 1.10,2013-01-24 20:05:00,
2013-01-24 15:21:00,19.6,-9.0,30.00,WNW,298,6.0,-999.0,27,-99.99,,,0.00,weatherlink.com 1.10,2013-01-24 20:21:00,
2013-01-24 15:35:00,20.1,-9.0,30.00,NNW,342,5.0,-999.0,27,-99.99,,,0.00,weatherlink.com 1.10,2013-01-24 20:35:00,
2013-01-24 15:50:00,18.9,-11.0,30.01,NW,313,12.0,-999.0,26,-99.99,,,0.00,weatherlink.com 1.10,2013-01-24 20:50:00,
2013-01-24 16:05:00,18.7,-11.0,30.02,North,351,6.0,-999.0,26,-99.99,,,0.00,weatherlink.com 1.10,2013-01-24 21:05:00,
2013-01-24 16:20:00,18.8,-10.0,30.01,WNW,292,11.0,-999.0,27,-99.99,,,0.00,weatherlink.com 1.10,2013-01-24 21:20:00,
2013-01-24 16:35:00,18.6,-10.0,30.02,NNW,330,8.0,-999.0,28,-99.99,,,0.00,weatherlink.com 1.10,2013-01-24 21:35:00,
2013-01-24 16:50:00,18.4,-9.0,30.03,NE,39,5.0,-999.0,29,-99.99,,,0.00,weatherlink.com 1.10,2013-01-24 21:50:00,
2013-01-24 17:06:00,18.4,-9.0,30.04,NNW,333,4.0,-999.0,29,-99.99,,,0.00,weatherlink.com 1.10,2013-01-24 22:06:00,
2013-01-24 17:20:00,18.2,-9.0,30.05,West,274,1.0,-999.0,30,-99.99,,,0.00,weatherlink.com 1.10,2013-01-24 22:20:00,
2013-01-24 17:35:00,18.0,-9.0,30.05,WNW,302,5.0,-999.0,30,-99.99,,,0.00,weatherlink.com 1.10,2013-01-24 22:35:00,
2013-01-24 17:50:00,17.8,-9.0,30.06,NNW,332,0.0,-999.0,30,-99.99,,,0.00,weatherlink.com 1.10,2013-01-24 22:50:00,
2013-01-24 18:05:00,17.6,-9.0,30.06,WSW,246,4.0,-999.0,30,-99.99,,,0.00,weatherlink.com 1.10,2013-01-24 23:05:00,
2013-01-24 18:20:00,17.3,-9.0,30.06,NW,304,1.0,-999.0,31,-99.99,,,0.00,weatherlink.com 1.10,2013-01-24 23:20:00,
2013-01-24 18:36:00,17.1,-9.0,30.07,NNW,333,4.0,-999.0,31,-99.99,,,0.00,weatherlink.com 1.10,2013-01-24 23:36:00,
2013-01-24 18:50:00,16.9,-8.0,30.07,NW,319,0.0,-999.0,33,-99.99,,,0.00,weatherlink.com 1.10,2013-01-24 23:50:00,
2013-01-24 19:05:00,16.8,-8.0,30.08,WNW,293,3.0,-999.0,33,-99.99,,,0.00,weatherlink.com 1.10,2013-01-25 00:05:00,
2013-01-24 19:20:00,17.0,-8.0,30.09,NNW,327,1.0,-999.0,32,-99.99,,,0.00,weatherlink.com 1.10,2013-01-25 00:20:00,
2013-01-24 19:35:00,17.0,-9.0,30.09,NNW,331,5.0,-999.0,31,-99.99,,,0.00,weatherlink.com 1.10,2013-01-25 00:35:00,
2013-01-24 19:51:00,16.9,-10.0,30.09,NW,306,9.0,-999.0,29,-99.99,,,0.00,weatherlink.com 1.10,2013-01-25 00:51:00,
2013-01-24 20:05:00,16.7,-11.0,30.09,NNW,330,0.0,-999.0,28,-99.99,,,0.00,weatherlink.com 1.10,2013-01-25 01:05:00,
2013-01-24 20:20:00,16.2,-12.0,30.09,NW,312,1.0,-999.0,28,-99.99,,,0.00,weatherlink.com 1.10,2013-01-25 01:20:00,
2013-01-24 20:35:00,15.8,-11.0,30.09,NW,324,9.0,-999.0,29,-99.99,,,0.00,weatherlink.com 1.10,2013-01-25 01:35:00,
2013-01-24 20:50:00,15.6,-11.0,30.09,NW,320,0.0,-999.0,29,-99.99,,,0.00,weatherlink.com 1.10,2013-01-25 01:50:00,
2013-01-24 21:05:00,15.4,-11.0,30.10,North,355,1.0,-999.0,30,-99.99,,,0.00,weatherlink.com 1.10,2013-01-25 02:05:00,
2013-01-24 21:21:00,15.1,-11.0,30.11,NNW,334,0.0,-999.0,30,-99.99,,,0.00,weatherlink.com 1.10,2013-01-25 02:21:00,
2013-01-24 21:35:00,14.9,-11.0,30.11,NNW,337,8.0,-999.0,30,-99.99,,,0.00,weatherlink.com 1.10,2013-01-25 02:35:00,
2013-01-24 21:50:00,14.6,-12.0,30.11,NNW,337,3.0,-999.0,30,-99.99,,,0.00,weatherlink.com 1.10,2013-01-25 02:50:00,
2013-01-24 22:05:00,14.4,-11.0,30.12,NW,326,4.0,-999.0,31,-99.99,,,0.00,weatherlink.com 1.10,2013-01-25 03:05:00,
2013-01-24 22:20:00,14.1,-11.0,30.12,West,279,6.0,-999.0,31,-99.99,,,0.00,weatherlink.com 1.10,2013-01-25 03:20:00,
2013-01-24 22:36:00,13.8,-12.0,30.12,WNW,298,6.0,-999.0,31,-99.99,,,0.00,weatherlink.com 1.10,2013-01-25 03:36:00,
2013-01-24 22:50:00,13.5,-11.0,30.13,North,5,7.0,-999.0,32,-99.99,,,0.00,weatherlink.com 1.10,2013-01-25 03:50:00,
2013-01-24 23:05:00,13.2,-11.0,30.14,North,10,6.0,-999.0,33,-99.99,,,0.00,weatherlink.com 1.10,2013-01-25 04:05:00,
2013-01-24 23:20:00,12.9,-11.0,30.15,NNW,340,1.0,-999.0,34,-99.99,,,0.00,weatherlink.com 1.10,2013-01-25 04:20:00,
2013-01-24 23:35:00,12.6,-11.0,30.15,NNW,348,7.0,-999.0,34,-99.99,,,0.00,weatherlink.com 1.10,2013-01-25 04:35:00,
2013-01-24 23:50:00,12.3,-11.0,30.14,NNW,332,7.0,-999.0,35,-99.99,,,0.00,weatherlink.com 1.10,2013-01-25 04:50:00,